Pittsfield, IL

6:05 PM CDT on July 23, 2017 (GMT -0500)
Pittsfield Penstone Municipal

Weather History for KPPQ - January, 2013

Change the Weather History Date:

Monday, January 21, 2013

  Actual Average (KUIN) Record (KUIN)
Temperature  
Mean Temperature 16 °F -  
Max Temperature 19 °F 34 °F 69 °F (1957)
Min Temperature 12 °F 21 °F -16 °F (1970)
Degree Days  
Heating Degree Days 50    
Moisture  
Dew Point 1 °F    
Average Humidity 55    
Maximum Humidity 78    
Minimum Humidity 38    
Precipitation  
Precipitation 0.00 in - - ()
Sea Level Pressure  
Sea Level Pressure 30.35 in    
Wind  
Wind Speed 11 mph (WNW)    
Max Wind Speed 21 mph    
Max Gust Speed 28 mph    
Visibility 10 miles    
Events      
Averages and records for this station are not official NWS values.
T = Trace of Precipitation, MM = Missing Value Source: NWS Daily Summary

Daily Weather History Graph

Daily Weather History Graph

Search for Another Location

Airport or City:

Trip Planner

Search our weather history database for the weather conditions in past years. The results will help you decide how hot, cold, wet, or windy it might be!

Date:

Astronomy

Jan. 21, 2013 Rise Set
Actual Time 7:19 AM CST 5:10 PM CST
Civil Twilight 6:49 AM CST 5:39 PM CST
Nautical Twilight 6:17 AM CST 6:12 PM CST
Astronomical Twilight 5:45 AM CST 6:44 PM CST
Moon 12:50 PM CST (1/21) 2:47 AM CST (1/21)
Length of Visible Light 10h 49m
Length of Day
9h 51m
Waxing Gibbous, 75% of the Moon is Illuminated
Jan 21
Waxing Gibbous
Jan 26
Full
Feb 3
Last Quarter
Feb 10
New
Feb 17
First Quarter

Hourly Weather History & Observations

Time (CST) Temp. Windchill Dew Point Humidity Pressure Visibility Wind Dir Wind Speed Gust Speed Precip Events Conditions
12:15 AM 19.4 °F 10.4 °F 13.6 °F 78% 30.32 in 10.0 mi WNW 6.9 mph - N/A   Scattered Clouds
12:35 AM 19.4 °F 7.2 °F 12.9 °F 76% 30.31 in 10.0 mi WNW 11.5 mph - N/A   Mostly Cloudy
12:55 AM 18.9 °F 8.8 °F 11.1 °F 72% 30.31 in 10.0 mi WNW 8.1 mph - N/A   Scattered Clouds
1:15 AM 18.5 °F 7.5 °F 11.8 °F 75% 30.31 in 10.0 mi WNW 9.2 mph - N/A   Clear
1:35 AM 18.3 °F 5.2 °F 12.0 °F 76% 30.32 in 10.0 mi WNW 12.7 mph 17.3 mph N/A   Scattered Clouds
1:55 AM 18.5 °F 2.0 °F 10.8 °F 72% 30.32 in 10.0 mi NW 20.7 mph 27.6 mph N/A   Mostly Cloudy
2:15 AM 17.6 °F 5.0 °F 9.5 °F 71% 30.32 in 10.0 mi NW 11.5 mph 19.6 mph N/A   Scattered Clouds
2:35 AM 17.1 °F 2.5 °F 8.2 °F 68% 30.32 in 10.0 mi WNW 15.0 mph 21.9 mph N/A   Clear
2:55 AM 16.7 °F 4.5 °F 8.6 °F 70% 30.32 in 10.0 mi WNW 10.4 mph 19.6 mph N/A   Clear
3:15 AM 16.3 °F 4.9 °F 9.3 °F 74% 30.31 in 10.0 mi West 9.2 mph - N/A   Clear
3:35 AM 16.5 °F 6.9 °F 9.5 °F 74% 30.31 in 10.0 mi WNW 6.9 mph - N/A   Scattered Clouds
3:55 AM 16.5 °F 3.6 °F 9.5 °F 74% 30.31 in 10.0 mi WNW 11.5 mph 16.1 mph N/A   Clear
4:15 AM 16.5 °F 5.1 °F 10.0 °F 76% 30.31 in 10.0 mi WNW 9.2 mph - N/A   Scattered Clouds
4:35 AM 16.7 °F 4.5 °F 9.5 °F 73% 30.31 in 10.0 mi West 10.4 mph - N/A   Clear
4:55 AM 16.7 °F 4.5 °F 9.5 °F 73% 30.31 in 10.0 mi West 10.4 mph - N/A   Clear
5:15 AM 16.5 °F 3.6 °F 8.1 °F 69% 30.32 in 10.0 mi West 11.5 mph 17.3 mph N/A   Clear
5:35 AM 16.3 °F 2.1 °F 7.3 °F 68% 30.31 in 10.0 mi WNW 13.8 mph 25.3 mph N/A   Clear
5:55 AM 16.2 °F 3.9 °F 6.6 °F 66% 30.31 in 10.0 mi WNW 10.4 mph 18.4 mph N/A   Scattered Clouds
6:15 AM 15.8 °F 2.7 °F 5.5 °F 64% 30.32 in 10.0 mi WNW 11.5 mph 18.4 mph N/A   Clear
6:35 AM 15.6 °F 1.8 °F 4.8 °F 62% 30.32 in 10.0 mi NW 12.7 mph 18.4 mph N/A   Clear
6:55 AM 14.9 °F 0.3 °F 4.8 °F 64% 30.31 in 10.0 mi NW 13.8 mph 17.3 mph N/A   Clear
7:15 AM 14.7 °F 0.7 °F 4.6 °F 64% 30.32 in 10.0 mi NW 12.7 mph 19.6 mph N/A   Clear
7:35 AM 14.5 °F 1.9 °F 4.6 °F 65% 30.32 in 10.0 mi NW 10.4 mph - N/A   Scattered Clouds
7:55 AM 14.9 °F 1.6 °F 4.1 °F 62% 30.32 in 10.0 mi NW 11.5 mph 18.4 mph N/A   Scattered Clouds
8:35 AM 14.5 °F -0.7 °F 3.7 °F 62% 30.34 in 10.0 mi NW 15.0 mph - N/A   Clear
8:55 AM 13.5 °F -2.7 °F 1.6 °F 59% 30.34 in 10.0 mi NW 16.1 mph 24.2 mph N/A   Clear
9:15 AM 14.0 °F -0.8 °F 1.4 °F 57% 30.34 in 10.0 mi WNW 13.8 mph 25.3 mph N/A   Scattered Clouds
9:35 AM 14.5 °F -0.2 °F 2.5 °F 59% 30.35 in 10.0 mi NW 13.8 mph 21.9 mph N/A   Scattered Clouds
9:55 AM 14.2 °F -2.7 °F -0.9 °F 51% 30.36 in 10.0 mi NW 18.4 mph 26.5 mph N/A   Scattered Clouds
10:15 AM 14.7 °F -2.0 °F -2.9 °F 46% 30.36 in 10.0 mi WNW 18.4 mph 24.2 mph N/A   Scattered Clouds
10:35 AM 14.4 °F -1.0 °F -2.4 °F 48% 30.37 in 10.0 mi West 15.0 mph 24.2 mph N/A   Scattered Clouds
10:55 AM 14.9 °F 0.9 °F 0.3 °F 53% 30.38 in 10.0 mi WNW 12.7 mph 23.0 mph N/A   Scattered Clouds
11:15 AM 15.6 °F 1.2 °F -1.3 °F 47% 30.37 in 10.0 mi WNW 13.8 mph 24.2 mph N/A   Scattered Clouds
11:35 AM 15.4 °F 0.4 °F -1.5 °F 47% 30.37 in 10.0 mi WNW 15.0 mph 23.0 mph N/A   Clear
11:55 AM 15.6 °F 0.6 °F -2.4 °F 45% 30.36 in 10.0 mi NW 15.0 mph 23.0 mph N/A   Clear
12:15 PM 15.8 °F 1.4 °F -2.6 °F 44% 30.35 in 10.0 mi WNW 13.8 mph 18.4 mph N/A   Clear
12:35 PM 16.7 °F 2.0 °F 0.1 °F 48% 30.35 in 10.0 mi WNW 15.0 mph 21.9 mph N/A   Clear
12:55 PM 16.5 °F 1.8 °F -2.2 °F 44% 30.35 in 10.0 mi NW 15.0 mph 20.7 mph N/A   Clear
1:15 PM 16.5 °F 2.4 °F -2.4 °F 43% 30.35 in 10.0 mi WNW 13.8 mph 20.7 mph N/A   Clear
1:35 PM 16.3 °F 2.1 °F -2.4 °F 44% 30.35 in 10.0 mi NW 13.8 mph 20.7 mph N/A   Clear
1:55 PM 15.8 °F 2.7 °F -2.9 °F 44% 30.35 in 10.0 mi WNW 11.5 mph 17.3 mph N/A   Clear
2:15 PM 16.3 °F 3.4 °F -4.9 °F 39% 30.36 in 10.0 mi WNW 11.5 mph - N/A   Clear
2:35 PM 16.2 °F 1.9 °F -3.6 °F 42% 30.36 in 10.0 mi WNW 13.8 mph 17.3 mph N/A   Clear
2:55 PM 16.3 °F 4.1 °F -3.8 °F 41% 30.36 in 10.0 mi WNW 10.4 mph 17.3 mph N/A   Clear
3:15 PM 16.2 °F 2.5 °F -5.4 °F 38% 30.35 in 10.0 mi WNW 12.7 mph 17.3 mph N/A   Clear
3:35 PM 16.2 °F 2.5 °F -5.1 °F 39% 30.36 in 10.0 mi NW 12.7 mph - N/A   Clear
3:55 PM 16.0 °F 2.3 °F -4.0 °F 41% 30.35 in 10.0 mi NW 12.7 mph 18.4 mph N/A   Clear
4:15 PM 15.8 °F 4.2 °F -5.8 °F 38% 30.35 in 10.0 mi WNW 9.2 mph - N/A   Clear
4:35 PM 14.9 °F 3.1 °F -5.6 °F 40% 30.36 in 10.0 mi WNW 9.2 mph - N/A   Clear
4:55 PM 14.9 °F 5.0 °F -4.5 °F 42% 30.36 in 10.0 mi West 6.9 mph - N/A   Clear
5:15 PM 14.5 °F 1.9 °F -4.4 °F 43% 30.36 in 10.0 mi West 10.4 mph - N/A   Scattered Clouds
5:35 PM 14.4 °F 2.4 °F -4.5 °F 43% 30.36 in 10.0 mi West 9.2 mph - N/A   Mostly Cloudy
5:55 PM 14.0 °F 5.1 °F -4.0 °F 45% 30.37 in 10.0 mi West 5.8 mph - N/A   Scattered Clouds
6:15 PM 14.0 °F 5.1 °F -3.1 °F 47% 30.37 in 10.0 mi West 5.8 mph - N/A   Clear
6:35 PM 14.0 °F 3.9 °F -2.2 °F 49% 30.37 in 10.0 mi West 6.9 mph - N/A   Scattered Clouds
6:55 PM 14.4 °F 4.3 °F -2.0 °F 48% 30.37 in 10.0 mi West 6.9 mph - N/A   Clear
7:15 PM 14.4 °F 4.3 °F -2.4 °F 48% 30.37 in 10.0 mi West 6.9 mph - N/A   Clear
7:35 PM 14.0 °F 2.0 °F -3.6 °F 46% 30.37 in 10.0 mi West 9.2 mph - N/A   Clear
7:55 PM 14.0 °F 2.9 °F -3.3 °F 46% 30.38 in 10.0 mi West 8.1 mph - N/A   Scattered Clouds
8:15 PM 14.0 °F 2.9 °F -3.5 °F 46% 30.37 in 10.0 mi West 8.1 mph - N/A   Clear
8:35 PM 14.0 °F 2.9 °F -2.7 °F 47% 30.37 in 10.0 mi West 8.1 mph - N/A   Clear
8:55 PM 13.8 °F 2.7 °F -2.6 °F 48% 30.38 in 10.0 mi West 8.1 mph - N/A   Clear
9:15 PM 14.0 °F 3.9 °F -2.2 °F 49% 30.37 in 10.0 mi West 6.9 mph - N/A   Clear
9:35 PM 14.0 °F 2.0 °F -2.4 °F 48% 30.38 in 10.0 mi WNW 9.2 mph - N/A   Clear
9:55 PM 14.0 °F 2.0 °F -2.7 °F 47% 30.38 in 10.0 mi West 9.2 mph - N/A   Clear
10:15 PM 14.0 °F 2.9 °F -2.7 °F 47% 30.38 in 10.0 mi West 8.1 mph - N/A   Clear
10:35 PM 13.8 °F 4.9 °F -2.4 °F 49% 30.39 in 10.0 mi West 5.8 mph - N/A   Clear
10:55 PM 13.6 °F 4.6 °F -1.3 °F 52% 30.39 in 10.0 mi West 5.8 mph - N/A   Clear
11:15 PM 14.0 °F 3.9 °F -0.4 °F 53% 30.39 in 10.0 mi West 6.9 mph - N/A   Clear
11:35 PM 12.7 °F 5.0 °F -0.6 °F 55% 30.38 in 10.0 mi West 4.6 mph - N/A   Clear
11:55 PM 12.6 °F 4.8 °F -0.2 °F 57% 30.38 in 10.0 mi West 4.6 mph - N/A   Clear